| time (UTC) | temp C | wind direction | speed KPH | gust KPH | rain 1hr cm | rain 24hr cm | rain mn cm | humidity % | barometer mb |
| 20260902034358 | 16 | 75 | 0.0 | 0.0 | 0.00 | 0.00 | 0.00 | 73 | 1015.9 |
| 20260902033856 | 16 | 354 | 0.0 | 1.6 | 0.00 | 0.00 | 0.00 | 73 | 1016.0 |
| 20260902033351 | 16 | 342 | 0.0 | 0.0 | 0.00 | 0.00 | 0.00 | 73 | 1015.8 |
| 20260902032850 | 16 | 349 | 0.0 | 0.0 | 0.00 | 0.00 | 0.00 | 72 | 1016.0 |
| 20260902032351 | 16 | 79 | 0.0 | 1.6 | 0.00 | 0.00 | 0.00 | 72 | 1016.0 |
| 20260902031851 | 16 | 87 | 0.0 | 0.0 | 0.00 | 0.00 | 0.00 | 71 | 1015.6 |
| 20260902031348 | 16 | 94 | 0.0 | 0.0 | 0.00 | 0.00 | 0.00 | 70 | 1015.7 |
| 20260902030843 | 16 | 95 | 0.0 | 3.2 | 0.00 | 0.00 | 0.00 | 69 | 1015.5 |
| 20260902030337 | 16 | 58 | 0.0 | 1.6 | 0.00 | 0.00 | 0.00 | 69 | 1015.7 |
| 20260902025836 | 16 | 107 | 8.0 | 12.9 | 0.00 | 0.00 | 0.00 | 68 | 1015.4 |
| 20260902025332 | 16 | 177 | 0.0 | 3.2 | 0.00 | 0.00 | 0.00 | 67 | 1015.2 |
| 20260902024832 | 16 | 83 | 0.0 | 3.2 | 0.00 | 0.00 | 0.00 | 65 | 1015.4 |
| 20260902024328 | 17 | 86 | 1.6 | 4.8 | 0.00 | 0.00 | 0.00 | 64 | 1015.4 |
| 20260902023823 | 17 | 57 | 0.0 | 9.7 | 0.00 | 0.00 | 0.00 | 64 | 1015.6 |
| 20260902023318 | 17 | 112 | 0.0 | 0.0 | 0.00 | 0.00 | 0.00 | 63 | 1015.4 |
| 20260902022817 | 17 | 333 | 0.0 | 6.4 | 0.00 | 0.00 | 0.00 | 62 | 1015.3 |
| 20260902022312 | 17 | 23 | 0.0 | 3.2 | 0.00 | 0.00 | 0.00 | 62 | 1015.4 |
| 20260902021808 | 17 | 147 | 0.0 | 0.0 | 0.00 | 0.00 | 0.00 | 61 | 1015.3 |
| 20260902021303 | 17 | 153 | 0.0 | 3.2 | 0.00 | 0.00 | 0.00 | 61 | 1015.0 |
| 20260902020759 | 17 | 277 | 0.0 | 0.0 | 0.00 | 0.00 | 0.00 | 60 | 1015.3 |
| 20260902020255 | 18 | 111 | 1.6 | 4.8 | 0.00 | 0.00 | 0.00 | 58 | 1015.0 |
| 20260902015749 | 18 | 354 | 0.0 | 0.0 | 0.00 | 0.00 | 0.00 | 58 | 1015.3 |
| 20260902015246 | 18 | 80 | 0.0 | 1.6 | 0.00 | 0.00 | 0.00 | 57 | 1015.2 |
| 20260902014742 | 18 | 125 | 0.0 | 3.2 | 0.00 | 0.00 | 0.00 | 56 | 1014.8 |
| 20260902014238 | 18 | 301 | 0.0 | 0.0 | 0.00 | 0.00 | 0.00 | 55 | 1015.1 |
| 20260902013736 | 18 | 101 | 0.0 | 6.4 | 0.00 | 0.00 | 0.00 | 54 | 1015.0 |
| 20260902013232 | 19 | 88 | 0.0 | 14.5 | 0.00 | 0.00 | 0.00 | 53 | 1015.0 |
| 20260902012727 | 19 | 9 | 4.8 | 11.3 | 0.00 | 0.00 | 0.00 | 53 | 1014.9 |
| 20260902012223 | 19 | 67 | 3.2 | 11.3 | 0.00 | 0.00 | 0.00 | 53 | 1015.0 |
| 20260902011719 | 19 | 94 | 6.4 | 9.7 | 0.00 | 0.00 | 0.00 | 52 | 1014.8 |
| 20260902011218 | 20 | 128 | 6.4 | 9.7 | 0.00 | 0.00 | 0.00 | 51 | 1014.9 |
| 20260902010717 | 20 | 150 | 4.8 | 12.9 | 0.00 | 0.00 | 0.00 | 50 | 1014.8 |
| 20260902010214 | 20 | 122 | 1.6 | 11.3 | 0.00 | 0.00 | 0.00 | 50 | 1014.9 |
| 20260902005711 | 20 | 64 | 0.0 | 3.2 | 0.00 | 0.00 | 0.00 | 50 | 1014.9 |
| 20260902005208 | 20 | 209 | 0.0 | 3.2 | 0.00 | 0.00 | 0.00 | 52 | 1014.9 |
| 20260902004707 | 20 | 153 | 1.6 | 6.4 | 0.00 | 0.00 | 0.00 | 52 | 1014.6 |
| 20260902004202 | 20 | 75 | 1.6 | 6.4 | 0.00 | 0.00 | 0.00 | 50 | 1014.7 |
| 20260902003658 | 20 | 104 | 1.6 | 4.8 | 0.00 | 0.00 | 0.00 | 50 | 1014.7 |
| 20260902003153 | 21 | 90 | 1.6 | 9.7 | 0.00 | 0.00 | 0.00 | 49 | 1014.9 |
| 20260902002649 | 20 | 98 | 4.8 | 9.7 | 0.00 | 0.00 | 0.00 | 48 | 1014.9 |
| 20260902002149 | 20 | 20 | 3.2 | 4.8 | 0.00 | 0.00 | 0.00 | 48 | 1014.9 |
| 20260902001644 | 21 | 132 | 6.4 | 12.9 | 0.00 | 0.00 | 0.00 | 46 | 1015.0 |
| 20260902001143 | 21 | 145 | 1.6 | 9.7 | 0.00 | 0.00 | 0.00 | 46 | 1014.9 |
| 20260902000639 | 21 | 54 | 1.6 | 11.3 | 0.00 | 0.00 | 0.00 | 45 | 1014.8 |
| 20260902000134 | 21 | 67 | 0.0 | 14.5 | 0.00 | 0.00 | 0.00 | 45 | 1014.9 |
| 20260901235634 | 21 | 111 | 6.4 | 11.3 | 0.00 | 0.00 | 0.00 | 43 | 1014.6 |
| 20260901235129 | 21 | 93 | 1.6 | 11.3 | 0.00 | 0.00 | 0.00 | 45 | 1015.1 |
| 20260901234628 | 21 | 132 | 3.2 | 11.3 | 0.00 | 0.00 | 0.00 | 45 | 1015.0 |
| 20260901234123 | 22 | 94 | 8.0 | 11.3 | 0.00 | 0.00 | 0.00 | 44 | 1014.9 |
| 20260901233618 | 22 | 73 | 1.6 | 3.2 | 0.00 | 0.00 | 0.00 | 42 | 1014.9 |
| 20260901233114 | 22 | 309 | 6.4 | 14.5 | 0.00 | 0.00 | 0.00 | 42 | 1014.8 |
| 20260901232614 | 22 | 54 | 3.2 | 9.7 | 0.00 | 0.00 | 0.00 | 43 | 1015.0 |
| 20260901232109 | 22 | 122 | 0.0 | 6.4 | 0.00 | 0.00 | 0.00 | 43 | 1014.9 |
| 20260901231606 | 22 | 88 | 0.0 | 4.8 | 0.00 | 0.00 | 0.00 | 43 | 1015.0 |
| 20260901231102 | 21 | 128 | 3.2 | 4.8 | 0.00 | 0.00 | 0.00 | 43 | 1014.8 |
| 20260901230558 | 22 | 158 | 9.7 | 14.5 | 0.00 | 0.00 | 0.00 | 42 | 1014.8 |
| 20260901230057 | 23 | 64 | 1.6 | 4.8 | 0.00 | 0.00 | 0.00 | 41 | 1015.0 |
| 20260901225552 | 23 | 66 | 3.2 | 4.8 | 0.00 | 0.00 | 0.00 | 41 | 1014.9 |
| 20260901225052 | 22 | 13 | 0.0 | 6.4 | 0.00 | 0.00 | 0.00 | 43 | 1014.9 |
| 20260901224548 | 23 | 134 | 9.7 | 16.1 | 0.00 | 0.00 | 0.00 | 42 | 1015.0 |
| 20260901224044 | 22 | 133 | 1.6 | 4.8 | 0.00 | 0.00 | 0.00 | 42 | 1015.0 |
| 20260901223539 | 23 | 81 | 1.6 | 6.4 | 0.00 | 0.00 | 0.00 | 41 | 1014.8 |
| 20260901223035 | 23 | 129 | 1.6 | 3.2 | 0.00 | 0.00 | 0.00 | 41 | 1015.1 |
| 20260901222531 | 23 | 78 | 0.0 | 3.2 | 0.00 | 0.00 | 0.00 | 40 | 1015.1 |
| 20260901222026 | 22 | 123 | 0.0 | 6.4 | 0.00 | 0.00 | 0.00 | 42 | 1015.1 |
| 20260901221522 | 22 | 160 | 3.2 | 6.4 | 0.00 | 0.00 | 0.00 | 41 | 1015.1 |
| 20260901221018 | 22 | 86 | 0.0 | 12.9 | 0.00 | 0.00 | 0.00 | 43 | 1015.0 |
| 20260901220517 | 22 | 73 | 3.2 | 9.7 | 0.00 | 0.00 | 0.00 | 43 | 1015.1 |
| 20260901220016 | 23 | 93 | 0.0 | 6.4 | 0.00 | 0.00 | 0.00 | 40 | 1015.3 |
| 20260901215515 | 23 | 66 | 1.6 | 3.2 | 0.00 | 0.00 | 0.00 | 41 | 1015.3 |
| 20260901215015 | 23 | 35 | 1.6 | 22.5 | 0.00 | 0.00 | 0.00 | 41 | 1015.3 |
| 20260901214514 | 22 | 102 | 0.0 | 6.4 | 0.00 | 0.00 | 0.00 | 44 | 1015.2 |
| 20260901214008 | 22 | 104 | 3.2 | 9.7 | 0.00 | 0.00 | 0.00 | 43 | 1015.4 |
| 20260901213502 | 22 | 107 | 6.4 | 11.3 | 0.00 | 0.00 | 0.00 | 44 | 1015.3 |
| 20260901213001 | 22 | 126 | 1.6 | 6.4 | 0.00 | 0.00 | 0.00 | 43 | 1015.4 |
| 20260901212457 | 22 | 88 | 0.0 | 14.5 | 0.00 | 0.00 | 0.00 | 45 | 1015.4 |
| 20260901211953 | 23 | 161 | 6.4 | 11.3 | 0.00 | 0.00 | 0.00 | 42 | 1015.1 |
| 20260901211448 | 23 | 124 | 3.2 | 3.2 | 0.00 | 0.00 | 0.00 | 39 | 1015.3 |
| 20260901210944 | 23 | 86 | 1.6 | 9.7 | 0.00 | 0.00 | 0.00 | 39 | 1015.2 |
| 20260901210440 | 23 | 42 | 0.0 | 6.4 | 0.00 | 0.00 | 0.00 | 40 | 1015.3 |
| 20260901205936 | 23 | 89 | 0.0 | 6.4 | 0.00 | 0.00 | 0.00 | 38 | 1015.3 |
| 20260901205436 | 23 | 293 | 0.0 | 1.6 | 0.00 | 0.00 | 0.00 | 41 | 1015.1 |
| 20260901204931 | 22 | 98 | 0.0 | 1.6 | 0.00 | 0.00 | 0.00 | 42 | 1015.3 |
| 20260901204428 | 22 | 116 | 8.0 | 12.9 | 0.00 | 0.00 | 0.00 | 41 | 1015.0 |
| 20260901203927 | 22 | 210 | 0.0 | 9.7 | 0.00 | 0.00 | 0.00 | 43 | 1015.2 |
| 20260901203422 | 22 | 125 | 0.0 | 1.6 | 0.00 | 0.00 | 0.00 | 42 | 1015.3 |
| 20260901202918 | 22 | 255 | 0.0 | 4.8 | 0.00 | 0.00 | 0.00 | 41 | 1015.3 |
| 20260901202412 | 22 | 96 | 1.6 | 9.7 | 0.00 | 0.00 | 0.00 | 41 | 1015.5 |
| 20260901201908 | 22 | 49 | 0.0 | 0.0 | 0.00 | 0.00 | 0.00 | 42 | 1015.6 |
| 20260901201408 | 22 | 87 | 6.4 | 9.7 | 0.00 | 0.00 | 0.00 | 42 | 1015.6 |
| 20260901200908 | 21 | 147 | 1.6 | 4.8 | 0.00 | 0.00 | 0.00 | 44 | 1015.5 |
| 20260901200403 | 22 | 75 | 4.8 | 9.7 | 0.00 | 0.00 | 0.00 | 42 | 1015.7 |
| 20260901195902 | 22 | 354 | 0.0 | 1.6 | 0.00 | 0.00 | 0.00 | 42 | 1015.6 |
| 20260901195400 | 22 | 42 | 1.6 | 3.2 | 0.00 | 0.00 | 0.00 | 43 | 1015.6 |
| 20260901194856 | 21 | 325 | 0.0 | 0.0 | 0.00 | 0.00 | 0.00 | 43 | 1015.7 |
| 20260901194350 | 21 | 88 | 1.6 | 4.8 | 0.00 | 0.00 | 0.00 | 44 | 1015.7 |
| 20260901193847 | 21 | 75 | 1.6 | 3.2 | 0.00 | 0.00 | 0.00 | 43 | 1015.7 |
| 20260901193346 | 22 | 37 | 1.6 | 3.2 | 0.00 | 0.00 | 0.00 | 42 | 1015.8 |
| 20260901192846 | 22 | 47 | 0.0 | 3.2 | 0.00 | 0.00 | 0.00 | 40 | 1015.7 |
| 20260901192342 | 22 | 32 | 0.0 | 0.0 | 0.00 | 0.00 | 0.00 | 41 | 1015.8 |
| 20260901191837 | 22 | 215 | 0.0 | 0.0 | 0.00 | 0.00 | 0.00 | 42 | 1016.0 |
| 20260901191332 | 23 | 84 | 0.0 | 4.8 | 0.00 | 0.00 | 0.00 | 40 | 1016.0 |
| 20260901190829 | 22 | 79 | 0.0 | 0.0 | 0.00 | 0.00 | 0.00 | 42 | 1015.8 |
| 20260901190329 | 22 | 79 | 0.0 | 3.2 | 0.00 | 0.00 | 0.00 | 42 | 1016.0 |
| 20260901185827 | 22 | 51 | 1.6 | 6.4 | 0.00 | 0.00 | 0.00 | 41 | 1015.7 |
| 20260901185326 | 22 | 67 | 0.0 | 0.0 | 0.00 | 0.00 | 0.00 | 44 | 1016.0 |
| 20260901184822 | 20 | 313 | 0.0 | 0.0 | 0.00 | 0.00 | 0.00 | 47 | 1015.8 |
| 20260901184317 | 20 | 337 | 1.6 | 3.2 | 0.00 | 0.00 | 0.00 | 47 | 1015.8 |
| 20260901183813 | 20 | 89 | 1.6 | 1.6 | 0.00 | 0.00 | 0.00 | 49 | 1016.2 |
| 20260901183312 | 20 | 89 | 1.6 | 1.6 | 0.00 | 0.00 | 0.00 | 49 | 1016.0 |
| 20260901182809 | 19 | 149 | 0.0 | 3.2 | 0.00 | 0.00 | 0.00 | 50 | 1016.0 |
| 20260901182308 | 19 | 131 | 0.0 | 1.6 | 0.00 | 0.00 | 0.00 | 53 | 1015.8 |
| 20260901181803 | 19 | 85 | 0.0 | 4.8 | 0.00 | 0.00 | 0.00 | 52 | 1016.0 |
| 20260901181303 | 19 | 105 | 0.0 | 1.6 | 0.00 | 0.00 | 0.00 | 52 | 1016.0 |
| 20260901180757 | 19 | 116 | 1.6 | 3.2 | 0.00 | 0.00 | 0.00 | 53 | 1015.9 |
| 20260901180256 | 20 | 64 | 4.8 | 6.4 | 0.00 | 0.00 | 0.00 | 51 | 1016.1 |
| 20260901175755 | 19 | 93 | 4.8 | 9.7 | 0.00 | 0.00 | 0.00 | 50 | 1015.7 |
| 20260901175250 | 19 | 93 | 4.8 | 9.7 | 0.00 | 0.00 | 0.00 | 50 | 1016.0 |
| 20260901174745 | 19 | 87 | 0.0 | 1.6 | 0.00 | 0.00 | 0.00 | 53 | 1015.7 |
| 20260901174241 | 19 | 87 | 0.0 | 1.6 | 0.00 | 0.00 | 0.00 | 53 | 1015.5 |
| 20260901173737 | 19 | 96 | 0.0 | 0.0 | 0.00 | 0.00 | 0.00 | 55 | 1015.7 |
| 20260901173231 | 18 | 68 | 0.0 | 0.0 | 0.00 | 0.00 | 0.00 | 57 | 1015.7 |
| 20260901172728 | 20 | 116 | 3.2 | 4.8 | 0.00 | 0.00 | 0.00 | 54 | 1015.8 |
| 20260901172226 | 20 | 168 | 0.0 | 0.0 | 0.00 | 0.00 | 0.00 | 54 | 1015.6 |
| 20260901171725 | 20 | 168 | 0.0 | 0.0 | 0.00 | 0.00 | 0.00 | 54 | 1015.7 |
| 20260901171224 | 18 | 54 | 0.0 | 0.0 | 0.00 | 0.00 | 0.00 | 59 | 1015.6 |
| 20260901170723 | 18 | 66 | 0.0 | 0.0 | 0.00 | 0.00 | 0.00 | 59 | 1015.6 |
| 20260901170218 | 17 | 105 | 0.0 | 0.0 | 0.00 | 0.00 | 0.00 | 62 | 1015.4 |
| 20260901165717 | 17 | 140 | 0.0 | 1.6 | 0.00 | 0.00 | 0.00 | 63 | 1015.6 |
| 20260901165212 | 17 | 76 | 1.6 | 3.2 | 0.00 | 0.00 | 0.00 | 63 | 1015.6 |
| 20260901164708 | 17 | 84 | 0.0 | 1.6 | 0.00 | 0.00 | 0.00 | 63 | 1015.3 |
| 20260901164209 | 17 | 121 | 0.0 | 0.0 | 0.00 | 0.00 | 0.00 | 64 | 1015.5 |
| 20260901163704 | 17 | 84 | 6.4 | 6.4 | 0.00 | 0.00 | 0.00 | 64 | 1015.4 |
| 20260901163203 | 17 | 91 | 0.0 | 1.6 | 0.00 | 0.00 | 0.00 | 64 | 1015.4 |
| 20260901162659 | 17 | 95 | 0.0 | 1.6 | 0.00 | 0.00 | 0.00 | 65 | 1015.3 |
| 20260901162158 | 17 | 78 | 0.0 | 1.6 | 0.00 | 0.00 | 0.00 | 66 | 1015.5 |
| 20260901161657 | 17 | 43 | 0.0 | 0.0 | 0.00 | 0.00 | 0.00 | 68 | 1015.3 |
| 20260901161156 | 16 | 325 | 0.0 | 1.6 | 0.00 | 0.00 | 0.00 | 69 | 1015.3 |
| 20260901160653 | 16 | 80 | 0.0 | 0.0 | 0.00 | 0.00 | 0.00 | 71 | 1015.5 |
| 20260901160148 | 16 | 90 | 0.0 | 1.6 | 0.00 | 0.00 | 0.00 | 72 | 1015.3 |
| 20260901155647 | 16 | 101 | 0.0 | 1.6 | 0.00 | 0.00 | 0.00 | 72 | 1015.4 |
| 20260901155143 | 16 | 76 | 0.0 | 1.6 | 0.00 | 0.00 | 0.00 | 71 | 1014.9 |
| 20260901154638 | 16 | 90 | 0.0 | 1.6 | 0.00 | 0.00 | 0.00 | 71 | 1015.0 |
| 20260901154132 | 16 | 45 | 0.0 | 1.6 | 0.00 | 0.00 | 0.00 | 73 | 1015.0 |
| 20260901153628 | 16 | 320 | 0.0 | 6.4 | 0.00 | 0.00 | 0.00 | 73 | 1014.8 |
| 20260901153127 | 16 | 2 | 0.0 | 0.0 | 0.00 | 0.00 | 0.00 | 73 | 1015.0 |
| 20260901152622 | 16 | 2 | 0.0 | 0.0 | 0.00 | 0.00 | 0.00 | 73 | 1014.9 |
| 20260901152120 | 16 | 8 | 0.0 | 0.0 | 0.00 | 0.00 | 0.00 | 73 | 1014.9 |
| 20260901151617 | 16 | 8 | 0.0 | 0.0 | 0.00 | 0.00 | 0.00 | 74 | 1015.0 |
| 20260901151116 | 16 | 8 | 0.0 | 0.0 | 0.00 | 0.00 | 0.00 | 75 | 1014.9 |
| 20260901150615 | 16 | 8 | 0.0 | 0.0 | 0.00 | 0.00 | 0.00 | 75 | 1014.8 |
| 20260901150114 | 16 | 8 | 0.0 | 0.0 | 0.00 | 0.00 | 0.00 | 75 | 1014.6 |
| 20260901145612 | 16 | 7 | 0.0 | 0.0 | 0.00 | 0.00 | 0.00 | 75 | 1014.7 |
| 20260901145112 | 15 | 12 | 0.0 | 0.0 | 0.00 | 0.00 | 0.00 | 75 | 1014.7 |
| 20260901144607 | 15 | 12 | 0.0 | 0.0 | 0.00 | 0.00 | 0.00 | 75 | 1014.7 |
| 20260901144102 | 15 | 12 | 0.0 | 0.0 | 0.00 | 0.00 | 0.00 | 75 | 1014.4 |
| 20260901143558 | 15 | 2 | 0.0 | 0.0 | 0.00 | 0.00 | 0.00 | 76 | 1014.5 |
| 20260901143054 | 15 | 3 | 0.0 | 0.0 | 0.00 | 0.00 | 0.00 | 76 | 1014.3 |
| 20260901142550 | 15 | 55 | 0.0 | 1.6 | 0.00 | 0.00 | 0.00 | 76 | 1014.2 |
| 20260901142049 | 15 | 12 | 0.0 | 0.0 | 0.00 | 0.00 | 0.00 | 75 | 1014.3 |
| 20260901141544 | 15 | 18 | 0.0 | 0.0 | 0.00 | 0.00 | 0.00 | 75 | 1014.1 |
| 20260901141039 | 15 | 82 | 1.6 | 1.6 | 0.00 | 0.00 | 0.00 | 75 | 1014.1 |
| 20260901140537 | 15 | 81 | 0.0 | 0.0 | 0.00 | 0.00 | 0.00 | 75 | 1014.1 |
| 20260901140032 | 15 | 81 | 0.0 | 0.0 | 0.00 | 0.00 | 0.00 | 75 | 1013.9 |
| 20260901135531 | 15 | 81 | 0.0 | 0.0 | 0.00 | 0.00 | 0.00 | 75 | 1013.8 |
| 20260901135027 | 15 | 80 | 0.0 | 1.6 | 0.00 | 0.00 | 0.00 | 75 | 1014.0 |
| 20260901134523 | 15 | 326 | 0.0 | 0.0 | 0.00 | 0.00 | 0.00 | 76 | 1013.9 |
| 20260901134023 | 15 | 318 | 0.0 | 0.0 | 0.00 | 0.00 | 0.00 | 76 | 1013.8 |
| 20260901133521 | 15 | 317 | 0.0 | 0.0 | 0.00 | 0.00 | 0.00 | 76 | 1013.5 |
| 20260901133020 | 15 | 302 | 0.0 | 0.0 | 0.00 | 0.00 | 0.00 | 76 | 1013.5 |
| 20260901132515 | 15 | 302 | 0.0 | 0.0 | 0.00 | 0.00 | 0.00 | 76 | 1013.6 |
| 20260901132015 | 15 | 300 | 0.0 | 0.0 | 0.00 | 0.00 | 0.00 | 76 | 1013.8 |
| 20260901131515 | 15 | 319 | 0.0 | 0.0 | 0.00 | 0.00 | 0.00 | 76 | 1013.7 |
| 20260901131011 | 15 | 319 | 0.0 | 0.0 | 0.00 | 0.00 | 0.00 | 76 | 1013.6 |
| 20260901130511 | 15 | 311 | 0.0 | 0.0 | 0.00 | 0.00 | 0.00 | 76 | 1013.3 |
| 20260901130009 | 15 | 311 | 0.0 | 0.0 | 0.00 | 0.00 | 0.00 | 76 | 1013.4 |
| 20260901125508 | 15 | 314 | 0.0 | 0.0 | 0.00 | 0.00 | 0.00 | 76 | 1013.5 |
| 20260901125008 | 15 | 314 | 0.0 | 0.0 | 0.00 | 0.00 | 0.00 | 76 | 1013.4 |
| 20260901124504 | 15 | 314 | 0.0 | 0.0 | 0.00 | 0.00 | 0.00 | 76 | 1013.4 |
| 20260901123958 | 15 | 314 | 0.0 | 0.0 | 0.00 | 0.00 | 0.00 | 75 | 1013.5 |
| 20260901123453 | 15 | 314 | 0.0 | 0.0 | 0.00 | 0.00 | 0.00 | 76 | 1013.5 |
| 20260901122951 | 15 | 315 | 0.0 | 0.0 | 0.00 | 0.00 | 0.00 | 76 | 1013.3 |
| 20260901122451 | 15 | 37 | 0.0 | 0.0 | 0.00 | 0.00 | 0.00 | 76 | 1013.4 |
| 20260901121950 | 15 | 37 | 0.0 | 0.0 | 0.00 | 0.00 | 0.00 | 76 | 1013.1 |
| 20260901121445 | 15 | 37 | 0.0 | 0.0 | 0.00 | 0.00 | 0.00 | 75 | 1013.5 |
| 20260901120941 | 15 | 41 | 0.0 | 0.0 | 0.00 | 0.00 | 0.00 | 75 | 1013.1 |
| 20260901120440 | 15 | 129 | 0.0 | 0.0 | 0.00 | 0.00 | 0.00 | 76 | 1013.1 |
| 20260901115936 | 15 | 106 | 0.0 | 0.0 | 0.00 | 0.00 | 0.00 | 75 | 1013.2 |
| 20260901115436 | 15 | 105 | 0.0 | 0.0 | 0.00 | 0.00 | 0.00 | 75 | 1013.3 |
| 20260901114934 | 15 | 105 | 0.0 | 0.0 | 0.00 | 0.00 | 0.00 | 75 | 1013.3 |
| 20260901114429 | 15 | 95 | 0.0 | 0.0 | 0.00 | 0.00 | 0.00 | 74 | 1013.4 |
| 20260901113927 | 15 | 96 | 0.0 | 0.0 | 0.00 | 0.00 | 0.00 | 73 | 1013.6 |
| 20260901113426 | 15 | 119 | 0.0 | 4.8 | 0.00 | 0.00 | 0.00 | 73 | 1013.5 |
| 20260901112922 | 15 | 75 | 0.0 | 0.0 | 0.00 | 0.00 | 0.00 | 72 | 1013.6 |
| 20260901112417 | 15 | 41 | 0.0 | 0.0 | 0.00 | 0.00 | 0.00 | 72 | 1013.4 |
| 20260901111912 | 15 | 41 | 0.0 | 0.0 | 0.00 | 0.00 | 0.00 | 72 | 1013.6 |
| 20260901111410 | 15 | 42 | 0.0 | 0.0 | 0.00 | 0.00 | 0.00 | 72 | 1013.4 |
| 20260901110909 | 15 | 70 | 0.0 | 0.0 | 0.00 | 0.00 | 0.00 | 71 | 1013.6 |
| 20260901110405 | 15 | 91 | 0.0 | 0.0 | 0.00 | 0.00 | 0.00 | 71 | 1013.4 |
| 20260901105901 | 15 | 90 | 0.0 | 3.2 | 0.00 | 0.00 | 0.00 | 71 | 1013.5 |
| 20260901105356 | 15 | 290 | 0.0 | 0.0 | 0.00 | 0.00 | 0.00 | 72 | 1013.1 |
| 20260901104852 | 15 | 202 | 0.0 | 0.0 | 0.00 | 0.00 | 0.00 | 71 | 1013.6 |
| 20260901104347 | 15 | 213 | 0.0 | 0.0 | 0.00 | 0.00 | 0.00 | 71 | 1013.3 |
| 20260901103843 | 15 | 222 | 0.0 | 0.0 | 0.00 | 0.00 | 0.00 | 71 | 1013.3 |
| 20260901103342 | 15 | 235 | 0.0 | 0.0 | 0.00 | 0.00 | 0.00 | 71 | 1013.2 |
| 20260901102838 | 15 | 236 | 0.0 | 0.0 | 0.00 | 0.00 | 0.00 | 72 | 1013.3 |
| 20260901102337 | 15 | 235 | 0.0 | 0.0 | 0.00 | 0.00 | 0.00 | 72 | 1013.3 |
| 20260901101833 | 15 | 232 | 0.0 | 0.0 | 0.00 | 0.00 | 0.00 | 72 | 1013.1 |
| 20260901101333 | 15 | 253 | 0.0 | 0.0 | 0.00 | 0.00 | 0.00 | 72 | 1013.1 |
| 20260901100832 | 15 | 253 | 0.0 | 0.0 | 0.00 | 0.00 | 0.00 | 73 | 1013.4 |
| 20260901100327 | 15 | 100 | 0.0 | 0.0 | 0.00 | 0.00 | 0.00 | 73 | 1013.2 |
| 20260901095826 | 15 | 98 | 0.0 | 0.0 | 0.00 | 0.00 | 0.00 | 72 | 1013.1 |
| 20260901095324 | 15 | 98 | 0.0 | 0.0 | 0.00 | 0.00 | 0.00 | 72 | 1013.3 |
| 20260901094818 | 15 | 141 | 0.0 | 0.0 | 0.00 | 0.00 | 0.00 | 72 | 1013.2 |
| 20260901094313 | 15 | 141 | 0.0 | 0.0 | 0.00 | 0.00 | 0.00 | 72 | 1013.2 |
| 20260901093808 | 15 | 196 | 0.0 | 0.0 | 0.00 | 0.00 | 0.00 | 72 | 1013.3 |
| 20260901093307 | 15 | 202 | 0.0 | 0.0 | 0.00 | 0.00 | 0.00 | 71 | 1013.5 |
| 20260901092803 | 15 | 202 | 0.0 | 0.0 | 0.00 | 0.00 | 0.00 | 71 | 1013.3 |
| 20260901092259 | 15 | 289 | 0.0 | 0.0 | 0.00 | 0.00 | 0.00 | 72 | 1013.3 |
| 20260901091754 | 15 | 276 | 0.0 | 0.0 | 0.00 | 0.00 | 0.00 | 72 | 1013.5 |
| 20260901091250 | 15 | 288 | 0.0 | 0.0 | 0.00 | 0.00 | 0.00 | 72 | 1013.5 |
| 20260901090749 | 15 | 294 | 0.0 | 0.0 | 0.00 | 0.00 | 0.00 | 72 | 1013.4 |
| 20260901090245 | 15 | 300 | 0.0 | 0.0 | 0.00 | 0.00 | 0.00 | 73 | 1013.3 |
| 20260901085741 | 14 | 266 | 0.0 | 0.0 | 0.00 | 0.00 | 0.00 | 74 | 1013.7 |
| 20260901085236 | 14 | 266 | 0.0 | 0.0 | 0.00 | 0.00 | 0.00 | 74 | 1013.3 |
| 20260901084732 | 14 | 288 | 0.0 | 0.0 | 0.00 | 0.00 | 0.00 | 74 | 1013.4 |
| 20260901084229 | 14 | 287 | 0.0 | 0.0 | 0.00 | 0.00 | 0.00 | 73 | 1013.4 |
| 20260901083728 | 14 | 286 | 0.0 | 0.0 | 0.00 | 0.00 | 0.00 | 73 | 1013.3 |
| 20260901083228 | 14 | 72 | 0.0 | 0.0 | 0.00 | 0.00 | 0.00 | 73 | 1013.5 |
| 20260901082727 | 14 | 71 | 0.0 | 0.0 | 0.00 | 0.00 | 0.00 | 73 | 1013.2 |
| 20260901082222 | 14 | 70 | 0.0 | 1.6 | 0.00 | 0.00 | 0.00 | 73 | 1013.5 |
| 20260901081718 | 14 | 65 | 0.0 | 1.6 | 0.00 | 0.00 | 0.00 | 74 | 1013.2 |
| 20260901081217 | 14 | 259 | 0.0 | 0.0 | 0.00 | 0.00 | 0.00 | 74 | 1013.4 |
| 20260901080713 | 14 | 266 | 0.0 | 0.0 | 0.00 | 0.00 | 0.00 | 73 | 1013.3 |
| 20260901080211 | 14 | 213 | 0.0 | 0.0 | 0.00 | 0.00 | 0.00 | 73 | 1013.3 |
| 20260901075711 | 14 | 212 | 0.0 | 0.0 | 0.00 | 0.00 | 0.00 | 73 | 1013.2 |
| 20260901075211 | 14 | 129 | 0.0 | 0.0 | 0.00 | 0.00 | 0.00 | 74 | 1013.2 |
| 20260901074706 | 14 | 62 | 0.0 | 0.0 | 0.00 | 0.00 | 0.00 | 73 | 1013.3 |
| 20260901074201 | 14 | 152 | 0.0 | 0.0 | 0.00 | 0.00 | 0.00 | 73 | 1013.1 |
| 20260901073657 | 14 | 227 | 0.0 | 0.0 | 0.00 | 0.00 | 0.00 | 73 | 1013.4 |
| 20260901073153 | 14 | 194 | 0.0 | 0.0 | 0.00 | 0.00 | 0.00 | 73 | 1013.3 |
| 20260901072648 | 14 | 83 | 0.0 | 0.0 | 0.00 | 0.00 | 0.00 | 74 | 1013.2 |
| 20260901072142 | 14 | 321 | 0.0 | 0.0 | 0.00 | 0.00 | 0.00 | 74 | 1013.1 |
| 20260901071637 | 14 | 322 | 0.0 | 0.0 | 0.00 | 0.00 | 0.00 | 74 | 1013.3 |
| 20260901071136 | 14 | 317 | 0.0 | 0.0 | 0.00 | 0.00 | 0.00 | 74 | 1013.2 |
| 20260901070630 | 14 | 317 | 0.0 | 0.0 | 0.00 | 0.00 | 0.00 | 74 | 1013.4 |
| 20260901070126 | 14 | 271 | 0.0 | 0.0 | 0.00 | 0.00 | 0.00 | 74 | 1013.3 |
| 20260901065620 | 14 | 274 | 0.0 | 0.0 | 0.00 | 0.00 | 0.00 | 75 | 1013.3 |
| 20260901065120 | 14 | 268 | 0.0 | 0.0 | 0.00 | 0.00 | 0.00 | 74 | 1013.4 |
| 20260901064618 | 14 | 88 | 0.0 | 0.0 | 0.00 | 0.00 | 0.00 | 74 | 1013.2 |
| 20260901064114 | 14 | 109 | 0.0 | 0.0 | 0.00 | 0.00 | 0.00 | 74 | 1013.2 |
| 20260901063610 | 14 | 118 | 0.0 | 0.0 | 0.00 | 0.00 | 0.00 | 73 | 1013.1 |
| 20260901063106 | 14 | 86 | 0.0 | 0.0 | 0.00 | 0.00 | 0.00 | 73 | 1013.0 |
| 20260901062601 | 15 | 91 | 0.0 | 0.0 | 0.00 | 0.00 | 0.00 | 72 | 1013.1 |
| 20260901062057 | 15 | 100 | 0.0 | 0.0 | 0.00 | 0.00 | 0.00 | 73 | 1013.4 |
| 20260901061554 | 15 | 100 | 1.6 | 3.2 | 0.00 | 0.00 | 0.00 | 72 | 1013.4 |
| 20260901061049 | 15 | 97 | 0.0 | 0.0 | 0.00 | 0.00 | 0.00 | 72 | 1013.4 |
| 20260901060548 | 15 | 97 | 0.0 | 1.6 | 0.00 | 0.00 | 0.00 | 72 | 1013.5 |
| 20260901060044 | 15 | 101 | 1.6 | 4.8 | 0.00 | 0.00 | 0.00 | 72 | 1013.4 |
| 20260901055539 | 15 | 62 | 0.0 | 0.0 | 0.00 | 0.00 | 0.00 | 71 | 1013.5 |
| 20260901055036 | 15 | 305 | 0.0 | 6.4 | 0.00 | 0.00 | 0.00 | 71 | 1013.4 |
| 20260901054532 | 15 | 162 | 1.6 | 4.8 | 0.00 | 0.00 | 0.00 | 72 | 1013.7 |
| 20260901054028 | 15 | 129 | 0.0 | 0.0 | 0.00 | 0.00 | 0.00 | 72 | 1013.4 |
| 20260901053524 | 15 | 149 | 0.0 | 0.0 | 0.00 | 0.00 | 0.00 | 73 | 1013.4 |
| 20260901053020 | 14 | 90 | 0.0 | 1.6 | 0.00 | 0.00 | 0.00 | 73 | 1013.6 |
| 20260901052520 | 14 | 303 | 0.0 | 0.0 | 0.00 | 0.00 | 0.00 | 74 | 1013.4 |
| 20260901052020 | 14 | 303 | 0.0 | 0.0 | 0.00 | 0.00 | 0.00 | 74 | 1013.4 |
| 20260901051515 | 14 | 303 | 0.0 | 0.0 | 0.00 | 0.00 | 0.00 | 74 | 1013.4 |
| 20260901051013 | 14 | 5 | 0.0 | 0.0 | 0.00 | 0.00 | 0.00 | 75 | 1013.4 |
| 20260901050509 | 14 | 298 | 0.0 | 0.0 | 0.00 | 0.00 | 0.00 | 75 | 1013.4 |
| 20260901050004 | 14 | 298 | 0.0 | 0.0 | 0.00 | 0.00 | 0.00 | 74 | 1013.4 |
| 20260901045500 | 14 | 298 | 0.0 | 0.0 | 0.00 | 0.00 | 0.00 | 74 | 1013.3 |
| 20260901044959 | 14 | 298 | 0.0 | 0.0 | 0.00 | 0.00 | 0.00 | 74 | 1013.6 |
| 20260901044455 | 14 | 298 | 0.0 | 0.0 | 0.00 | 0.00 | 0.00 | 73 | 1013.3 |
| 20260901043951 | 14 | 298 | 0.0 | 0.0 | 0.00 | 0.00 | 0.00 | 73 | 1013.4 |
| 20260901043447 | 14 | 220 | 0.0 | 0.0 | 0.00 | 0.00 | 0.00 | 74 | 1013.3 |
| 20260901042947 | 15 | 220 | 0.0 | 0.0 | 0.00 | 0.00 | 0.00 | 73 | 1013.3 |
| 20260901042447 | 15 | 123 | 0.0 | 0.0 | 0.00 | 0.00 | 0.00 | 73 | 1013.3 |
| 20260901041942 | 15 | 122 | 0.0 | 0.0 | 0.00 | 0.00 | 0.00 | 73 | 1013.0 |
| 20260901041437 | 15 | 352 | 0.0 | 3.2 | 0.00 | 0.00 | 0.00 | 73 | 1013.1 |
| 20260901040937 | 15 | 184 | 0.0 | 0.0 | 0.00 | 0.00 | 0.00 | 73 | 1013.2 |
| 20260901040432 | 15 | 98 | 0.0 | 0.0 | 0.00 | 0.00 | 0.00 | 73 | 1013.3 |
| 20260901035931 | 15 | 112 | 0.0 | 0.0 | 0.00 | 0.00 | 0.00 | 73 | 1013.1 |
| 20260901035430 | 15 | 112 | 0.0 | 0.0 | 0.00 | 0.00 | 0.00 | 73 | 1013.1 |
| 20260901034928 | 15 | 103 | 0.0 | 3.2 | 0.00 | 0.00 | 0.00 | 73 | 1013.0 |